Weather Roundup
Issued by NWS Springfield, MO

Home | Current Version | Previous Version | Text Only | Print | Product List | Glossary On
Versions: 1 2 3 4 5 6 7 8 9 10 11 12 13 14 15 16 17 18 19 20 21 22 23 24 25 26 27 28 29 30 31 32 33 34 35 36 37 38 39 40 41 42 43 44 45 46 47 48 49 50
000
NZUS99 KSGF 202207
HRRSGF

HOURLY WEATHER
NATIONAL WEATHER SERVICE SPRINGFIELD MO
500 PM CDT SUN APR 20 2014

......SGF CWA......

CITY           SKY/WX    TMP DP  RH WIND       PRES   REMARKS
SPRINGFIELD    PTSUNNY   75  50  41 W7        30.07F
JOPLIN         CLOUDY    74  51  44 SW6       30.07F
WEST PLAINS    CLOUDY    76  46  34 S6        30.10F
ROLLA          MOSUNNY   77  50  38 S12       30.06F
OSAGE BEACH    CLOUDY    79  46  31 S8        30.06F
BRANSON        PTSUNNY   75  48  38 SW5       30.09F

......SURROUNDING SGF CWA......

CITY           SKY/WX    TMP DP  RH WIND       PRES   REMARKS
CHANUTE        CLOUDY    72  54  53 S12G21    30.05F
PARSONS        CLOUDY    74  53  48 S12       30.06F
COFFEYVILLE    CLOUDY    76  54  46 S14       30.05F
EMPORIA        CLOUDY    67  59  75 S9        30.03F
GROVE OK       CLOUDY    77  54  44 CALM      30.07F
ROGERS AR      PTSUNNY   73  51  46 S8        30.09F
SILOAM SPRINGS CLOUDY    72  52  49 SW12      30.10F
HARRISON AR    PTSUNNY   77  47  34 S9        30.09F
NEAR YELLVILLE MOSUNNY   79  46  31 SE3       30.06F

......KANSAS AND MISSOURI......

CITY           SKY/WX    TMP DP  RH WIND       PRES   REMARKS
KANSAS CTY INT CLOUDY    75  54  47 S15       30.01F
DOWNTOWN KC    CLOUDY    77  52  41 SW9       30.00F
COLUMBIA       MOSUNNY   80  49  33 SW14      30.05F
SEDALIA        PTSUNNY   76  51  41 SW13      30.06F
ST JOSEPH      CLOUDY    76  52  43 S20       29.99F
ST LOUIS       MOSUNNY   82  39  21 SE10      30.06F
SPIRIT OF STL  SUNNY     80  37  21 S7G16     30.04F
KIRKSVILLE     PTSUNNY   79  48  33 S14G21    30.04F
WICHITA        CLOUDY    73  58  59 S15       30.00F
TOPEKA         CLOUDY    77  53  43 SW17      30.00F
OLATHE         CLOUDY    73  52  47 S17       30.02F

......TENNESSEE......

CITY           SKY/WX    TMP DP  RH WIND       PRES   REMARKS
MEMPHIS        PTSUNNY   79  49  34 VRB5      30.10F
NASHVILLE      MOSUNNY   79  40  24 E7        30.12F

......ARKANSAS.......

CITY           SKY/WX    TMP DP  RH WIND       PRES   REMARKS
FAYETTEVILLE   CLOUDY    70  54  56 S7        30.09F
FT SMITH       CLOUDY    80  51  36 VRB3      30.06F
LITTLE ROCK    PTSUNNY   79  50  36 SE9       30.08F

......OKLAHOMA.......

CITY           SKY/WX    TMP DP  RH WIND       PRES   REMARKS
TULSA          CLOUDY    75  57  53 S9        30.03F
PONCA CITY     MOSUNNY   77  54  44 S15       30.00F
MCALESTER      PTSUNNY   76  54  46 S8        30.05F
OKLAHOMA CITY  CLOUDY    67  55  65 S15       30.04S

......IOWA............

CITY           SKY/WX    TMP DP  RH WIND       PRES   REMARKS
DES MOINES     PTSUNNY   83  52  34 SW12G24   29.94F
QUAD CITIES    MOSUNNY   81  45  28 SW7       30.00F

......ILLINOIS........

CITY           SKY/WX    TMP DP  RH WIND       PRES   REMARKS
QUINCY         MOSUNNY   79  48  33 SW10      30.04F
CHICAGO        PTSUNNY   78  39  24 S12       30.06F




USA.gov is the U.S. government's official web portal to all federal, state and local government web resources and services.